Time,TemperatureF,DewpointF,PressureIn,WindDirection,WindDirectionDegrees,WindSpeedMPH,WindSpeedGustMPH,Humidity,HourlyPrecipIn,Conditions,Clouds,dailyrainin,SoftwareType,DateUTC
2013-01-17 00:06:00,47.1,38.0,30.09,West,278,0.0,1.0,72,0.00,,,0.00,weatherlink.com 1.10,2013-01-17 08:06:00,
2013-01-17 00:21:00,46.8,38.0,30.09,ESE,114,0.0,2.0,72,0.00,,,0.00,weatherlink.com 1.10,2013-01-17 08:21:00,
2013-01-17 00:38:00,46.5,38.0,30.09,WNW,284,0.0,2.0,71,0.00,,,0.00,weatherlink.com 1.10,2013-01-17 08:38:00,
2013-01-17 00:51:00,45.8,37.0,30.09,WNW,284,1.0,1.0,71,0.00,,,0.00,weatherlink.com 1.10,2013-01-17 08:51:00,
2013-01-17 01:06:00,45.6,37.0,30.09,NW,312,0.0,1.0,71,0.00,,,0.00,weatherlink.com 1.10,2013-01-17 09:06:00,
2013-01-17 01:21:00,45.8,37.0,30.09,NW,312,0.0,1.0,70,0.00,,,0.00,weatherlink.com 1.10,2013-01-17 09:21:00,
2013-01-17 01:36:00,45.5,37.0,30.09,NW,304,0.0,1.0,71,0.00,,,0.00,weatherlink.com 1.10,2013-01-17 09:36:00,
2013-01-17 01:51:00,45.1,36.0,30.10,NNW,332,0.0,2.0,71,0.00,,,0.00,weatherlink.com 1.10,2013-01-17 09:51:00,
2013-01-17 02:06:00,45.9,36.0,30.09,WNW,297,1.0,1.0,69,0.00,,,0.00,weatherlink.com 1.10,2013-01-17 10:06:00,
2013-01-17 02:21:00,45.7,36.0,30.09,West,271,0.0,3.0,68,0.00,,,0.00,weatherlink.com 1.10,2013-01-17 10:21:00,
2013-01-17 02:37:00,45.1,35.0,30.09,NNW,342,0.0,2.0,69,0.00,,,0.00,weatherlink.com 1.10,2013-01-17 10:37:00,
2013-01-17 02:52:00,45.0,35.0,30.09,NW,320,0.0,1.0,69,0.00,,,0.00,weatherlink.com 1.10,2013-01-17 10:52:00,
2013-01-17 03:07:00,45.0,35.0,30.09,NW,316,0.0,2.0,68,0.00,,,0.00,weatherlink.com 1.10,2013-01-17 11:07:00,
2013-01-17 03:22:00,44.9,35.0,30.09,WSW,251,0.0,4.0,68,0.00,,,0.00,weatherlink.com 1.10,2013-01-17 11:22:00,
2013-01-17 03:37:00,44.6,35.0,30.09,ENE,72,0.0,3.0,69,0.00,,,0.00,weatherlink.com 1.10,2013-01-17 11:37:00,
2013-01-17 03:52:00,44.3,35.0,30.09,WSW,244,0.0,0.0,69,0.00,,,0.00,weatherlink.com 1.10,2013-01-17 11:52:00,
2013-01-17 04:07:00,43.6,34.0,30.09,WSW,243,0.0,0.0,70,0.00,,,0.00,weatherlink.com 1.10,2013-01-17 12:07:00,
2013-01-17 04:22:00,42.8,34.0,30.09,WSW,243,0.0,0.0,72,0.00,,,0.00,weatherlink.com 1.10,2013-01-17 12:22:00,
2013-01-17 04:37:00,42.4,35.0,30.09,WSW,244,0.0,0.0,75,0.00,,,0.00,weatherlink.com 1.10,2013-01-17 12:37:00,
2013-01-17 05:07:00,41.8,34.0,30.08,WNW,288,0.0,0.0,75,0.00,,,0.00,weatherlink.com 1.10,2013-01-17 13:07:00,
2013-01-17 05:22:00,42.0,34.0,30.08,WNW,288,0.0,0.0,74,0.00,,,0.00,weatherlink.com 1.10,2013-01-17 13:22:00,
2013-01-17 05:37:00,41.4,34.0,30.08,WNW,288,0.0,0.0,75,0.00,,,0.00,weatherlink.com 1.10,2013-01-17 13:37:00,
2013-01-17 05:52:00,40.8,34.0,30.08,WNW,288,0.0,0.0,76,0.00,,,0.00,weatherlink.com 1.10,2013-01-17 13:52:00,
2013-01-17 06:07:00,40.2,34.0,30.08,WNW,288,0.0,0.0,78,0.00,,,0.00,weatherlink.com 1.10,2013-01-17 14:07:00,
2013-01-17 06:22:00,40.0,34.0,30.09,WNW,288,0.0,0.0,78,0.00,,,0.00,weatherlink.com 1.10,2013-01-17 14:22:00,
2013-01-17 06:37:00,39.9,34.0,30.09,WNW,288,0.0,0.0,80,0.00,,,0.00,weatherlink.com 1.10,2013-01-17 14:37:00,
2013-01-17 06:52:00,39.7,34.0,30.10,WNW,287,0.0,0.0,79,0.00,,,0.00,weatherlink.com 1.10,2013-01-17 14:52:00,
2013-01-17 07:07:00,39.7,34.0,30.10,WNW,287,0.0,0.0,79,0.00,,,0.00,weatherlink.com 1.10,2013-01-17 15:07:00,
2013-01-17 07:22:00,40.3,35.0,30.11,WNW,288,0.0,0.0,80,0.00,,,0.00,weatherlink.com 1.10,2013-01-17 15:22:00,
2013-01-17 07:37:00,41.7,35.0,30.11,WNW,287,0.0,0.0,78,0.00,,,0.00,weatherlink.com 1.10,2013-01-17 15:37:00,
2013-01-17 07:52:00,44.7,36.0,30.11,WNW,287,0.0,0.0,71,0.00,,,0.00,weatherlink.com 1.10,2013-01-17 15:52:00,
2013-01-17 08:07:00,47.6,36.0,30.12,West,259,1.0,3.0,64,0.00,,,0.00,weatherlink.com 1.10,2013-01-17 16:07:00,
2013-01-17 08:22:00,50.2,37.0,30.12,NW,316,0.0,2.0,60,0.00,,,0.00,weatherlink.com 1.10,2013-01-17 16:22:00,
2013-01-17 08:37:00,52.8,37.0,30.12,NW,323,2.0,3.0,56,0.00,,,0.00,weatherlink.com 1.10,2013-01-17 16:37:00,
2013-01-17 08:52:00,54.7,36.0,30.13,NW,316,3.0,4.0,50,0.00,,,0.00,weatherlink.com 1.10,2013-01-17 16:52:00,
2013-01-17 09:07:00,56.9,36.0,30.13,NW,305,2.0,5.0,46,0.00,,,0.00,weatherlink.com 1.10,2013-01-17 17:07:00,
2013-01-17 09:22:00,59.4,34.0,30.13,NW,325,4.0,7.0,39,0.00,,,0.00,weatherlink.com 1.10,2013-01-17 17:22:00,
2013-01-17 09:38:00,62.1,32.0,30.13,NNW,340,3.0,5.0,33,0.00,,,0.00,weatherlink.com 1.10,2013-01-17 17:38:00,
2013-01-17 09:53:00,64.9,30.0,30.13,NNW,328,2.0,5.0,27,0.00,,,0.00,weatherlink.com 1.10,2013-01-17 17:53:00,
2013-01-17 10:08:00,66.8,29.0,30.12,North,350,3.0,4.0,24,0.00,,,0.00,weatherlink.com 1.10,2013-01-17 18:08:00,
2013-01-17 10:23:00,68.4,28.0,30.12,NNW,345,1.0,6.0,22,0.00,,,0.00,weatherlink.com 1.10,2013-01-17 18:23:00,
2013-01-17 10:38:00,70.3,26.0,30.11,NNW,344,3.0,5.0,19,0.00,,,0.00,weatherlink.com 1.10,2013-01-17 18:38:00,
2013-01-17 10:53:00,71.6,24.0,30.10,NW,326,4.0,6.0,17,0.00,,,0.00,weatherlink.com 1.10,2013-01-17 18:53:00,
2013-01-17 11:08:00,73.3,24.0,30.09,NW,316,3.0,6.0,16,0.00,,,0.00,weatherlink.com 1.10,2013-01-17 19:08:00,
2013-01-17 11:23:00,74.3,24.0,30.08,NNW,329,4.0,7.0,15,0.00,,,0.00,weatherlink.com 1.10,2013-01-17 19:23:00,
2013-01-17 11:38:00,76.1,23.0,30.07,NE,48,2.0,5.0,14,0.00,,,0.00,weatherlink.com 1.10,2013-01-17 19:38:00,
2013-01-17 11:53:00,76.7,18.0,30.06,NW,311,1.0,6.0,11,0.00,,,0.00,weatherlink.com 1.10,2013-01-17 19:53:00,
2013-01-17 12:08:00,77.3,17.0,30.05,North,354,4.0,7.0,10,0.00,,,0.00,weatherlink.com 1.10,2013-01-17 20:08:00,
2013-01-17 12:23:00,78.1,19.0,30.04,NNW,332,1.0,7.0,11,0.00,,,0.00,weatherlink.com 1.10,2013-01-17 20:23:00,
2013-01-17 12:38:00,78.8,15.0,30.03,NW,322,4.0,8.0,9,0.00,,,0.00,weatherlink.com 1.10,2013-01-17 20:38:00,
2013-01-17 12:53:00,80.0,13.0,30.02,North,354,6.0,8.0,8,0.00,,,0.00,weatherlink.com 1.10,2013-01-17 20:53:00,
2013-01-17 13:08:00,80.2,14.0,30.02,WNW,299,3.0,6.0,8,0.00,,,0.00,weatherlink.com 1.10,2013-01-17 21:08:00,
2013-01-17 13:23:00,80.5,7.0,30.01,NNE,31,4.0,5.0,6,0.00,,,0.00,weatherlink.com 1.10,2013-01-17 21:23:00,
2013-01-17 13:38:00,81.3,4.0,30.01,NNW,339,2.0,4.0,5,0.00,,,0.00,weatherlink.com 1.10,2013-01-17 21:38:00,
2013-01-17 13:54:00,81.3,8.0,30.01,NNE,21,0.0,6.0,6,0.00,,,0.00,weatherlink.com 1.10,2013-01-17 21:54:00,
2013-01-17 14:09:00,81.1,-7.0,30.01,East,80,3.0,9.0,3,0.00,,,0.00,weatherlink.com 1.10,2013-01-17 22:09:00,
2013-01-17 14:24:00,81.3,-7.0,30.01,ENE,68,10.0,10.0,3,0.00,,,0.00,weatherlink.com 1.10,2013-01-17 22:24:00,
2013-01-17 14:39:00,80.3,-8.0,30.01,ESE,103,7.0,13.0,3,0.00,,,0.00,weatherlink.com 1.10,2013-01-17 22:39:00,
2013-01-17 14:54:00,80.4,-8.0,30.00,ENE,59,8.0,12.0,3,0.00,,,0.00,weatherlink.com 1.10,2013-01-17 22:54:00,
2013-01-17 15:09:00,80.4,-8.0,30.01,NE,45,5.0,11.0,3,0.00,,,0.00,weatherlink.com 1.10,2013-01-17 23:09:00,
2013-01-17 15:24:00,80.2,-8.0,30.01,ESE,115,2.0,12.0,3,0.00,,,0.00,weatherlink.com 1.10,2013-01-17 23:24:00,
2013-01-17 15:39:00,79.6,-8.0,30.01,ESE,107,11.0,14.0,3,0.00,,,0.00,weatherlink.com 1.10,2013-01-17 23:39:00,
2013-01-17 15:54:00,79.2,-9.0,30.02,ENE,73,13.0,13.0,3,0.00,,,0.00,weatherlink.com 1.10,2013-01-17 23:54:00,
2013-01-17 16:09:00,78.9,-9.0,30.02,ENE,77,4.0,11.0,3,0.00,,,0.00,weatherlink.com 1.10,2013-01-18 00:09:00,
2013-01-17 16:24:00,78.4,-3.0,30.02,East,86,6.0,11.0,4,0.00,,,0.00,weatherlink.com 1.10,2013-01-18 00:24:00,
2013-01-17 16:39:00,77.9,-9.0,30.02,ENE,69,7.0,13.0,3,0.00,,,0.00,weatherlink.com 1.10,2013-01-18 00:39:00,
2013-01-17 16:54:00,77.0,-4.0,30.03,NE,48,4.0,9.0,4,0.00,,,0.00,weatherlink.com 1.10,2013-01-18 00:54:00,
2013-01-17 17:09:00,75.9,0.0,30.03,NE,37,1.0,9.0,5,0.00,,,0.00,weatherlink.com 1.10,2013-01-18 01:09:00,
2013-01-17 17:25:00,75.0,-1.0,30.04,NE,48,3.0,6.0,5,0.00,,,0.00,weatherlink.com 1.10,2013-01-18 01:25:00,
2013-01-17 17:40:00,74.1,3.0,30.04,NE,37,2.0,6.0,6,0.00,,,0.00,weatherlink.com 1.10,2013-01-18 01:40:00,
2013-01-17 17:55:00,72.4,10.0,30.05,NNW,339,2.0,4.0,9,0.00,,,0.00,weatherlink.com 1.10,2013-01-18 01:55:00,
2013-01-17 18:10:00,69.3,16.0,30.05,NW,319,0.0,2.0,13,0.00,,,0.00,weatherlink.com 1.10,2013-01-18 02:10:00,
2013-01-17 18:25:00,68.3,17.0,30.06,NW,323,0.0,4.0,14,0.00,,,0.00,weatherlink.com 1.10,2013-01-18 02:25:00,
2013-01-17 18:40:00,66.7,19.0,30.06,NW,324,1.0,2.0,16,0.00,,,0.00,weatherlink.com 1.10,2013-01-18 02:40:00,
2013-01-17 18:55:00,65.2,22.0,30.06,NW,319,0.0,2.0,19,0.00,,,0.00,weatherlink.com 1.10,2013-01-18 02:55:00,
2013-01-17 19:10:00,63.4,23.0,30.06,NW,319,0.0,0.0,21,0.00,,,0.00,weatherlink.com 1.10,2013-01-18 03:10:00,
2013-01-17 19:25:00,61.8,23.0,30.07,NW,319,0.0,0.0,23,0.00,,,0.00,weatherlink.com 1.10,2013-01-18 03:25:00,
2013-01-17 19:40:00,60.5,24.0,30.07,NW,319,0.0,0.0,25,0.00,,,0.00,weatherlink.com 1.10,2013-01-18 03:40:00,
2013-01-17 19:55:00,59.7,25.0,30.07,NW,319,0.0,1.0,27,0.00,,,0.00,weatherlink.com 1.10,2013-01-18 03:55:00,
2013-01-17 20:10:00,60.9,22.0,30.07,NW,319,0.0,1.0,22,0.00,,,0.00,weatherlink.com 1.10,2013-01-18 04:10:00,
2013-01-17 20:25:00,59.5,22.0,30.07,NW,319,0.0,0.0,24,0.00,,,0.00,weatherlink.com 1.10,2013-01-18 04:25:00,
2013-01-17 20:40:00,58.2,24.0,30.07,NW,319,0.0,2.0,27,0.00,,,0.00,weatherlink.com 1.10,2013-01-18 04:40:00,
2013-01-17 20:56:00,56.8,26.0,30.07,NW,319,0.0,0.0,30,0.00,,,0.00,weatherlink.com 1.10,2013-01-18 04:56:00,
2013-01-17 21:11:00,57.0,26.0,30.07,NW,319,0.0,1.0,31,0.00,,,0.00,weatherlink.com 1.10,2013-01-18 05:11:00,
2013-01-17 21:26:00,56.0,24.0,30.07,NW,319,0.0,0.0,29,0.00,,,0.00,weatherlink.com 1.10,2013-01-18 05:26:00,
2013-01-17 21:41:00,55.3,26.0,30.08,NW,319,0.0,0.0,33,0.00,,,0.00,weatherlink.com 1.10,2013-01-18 05:41:00,
2013-01-17 21:56:00,55.4,25.0,30.08,NW,319,0.0,0.0,31,0.00,,,0.00,weatherlink.com 1.10,2013-01-18 05:56:00,
2013-01-17 22:11:00,55.1,26.0,30.08,NW,319,0.0,0.0,32,0.00,,,0.00,weatherlink.com 1.10,2013-01-18 06:11:00,
2013-01-17 22:26:00,53.0,28.0,30.07,NW,319,0.0,1.0,38,0.00,,,0.00,weatherlink.com 1.10,2013-01-18 06:26:00,
2013-01-17 22:41:00,52.9,28.0,30.08,NW,318,0.0,1.0,38,0.00,,,0.00,weatherlink.com 1.10,2013-01-18 06:41:00,
2013-01-17 22:56:00,52.7,28.0,30.08,West,266,0.0,0.0,39,0.00,,,0.00,weatherlink.com 1.10,2013-01-18 06:56:00,
2013-01-17 23:11:00,52.0,29.0,30.09,West,267,0.0,1.0,41,0.00,,,0.00,weatherlink.com 1.10,2013-01-18 07:11:00,
2013-01-17 23:26:00,51.1,29.0,30.09,West,267,0.0,1.0,43,0.00,,,0.00,weatherlink.com 1.10,2013-01-18 07:26:00,
2013-01-17 23:41:00,50.5,31.0,30.09,West,267,0.0,0.0,47,0.00,,,0.00,weatherlink.com 1.10,2013-01-18 07:41:00,
2013-01-17 23:56:00,49.1,30.0,30.09,West,267,0.0,1.0,49,0.00,,,0.00,weatherlink.com 1.10,2013-01-18 07:56:00,